This demonstration page uses our WeatherBlox Daily Observations layout. Learn more.

Left ArrowRight Arrow

39.01783, -85.05884

Hourly Observations for August 30, 2021

Temp ( °F °C ) Dew Point ( °F °C ) Humidity (%) Winds ( mph kmh ) Pressure ( in mb ) Visibility ( mi km ) Precip ( " mm )
12:52 am 00:52 Mostly Clear 77 25 70 21.1 79 79 SSW 5 7 30.02 1017 10 16 0.00 0.00
1:52 am 01:52 Partly Cloudy 76 24.4 70 21.1 82 82 SSW 6 9 30.01 1016 10 16 0.00 0.00
2:52 am 02:52 Partly Cloudy 75 23.9 70 21.1 84 84 SSW 5 7 29.99 1016 10 16 0.00 0.00
3:52 am 03:52 Mostly Cloudy 76 24.4 71 21.7 85 85 WSW 3 6 29.98 1015 10 16 0.00 0.00
4:25 am 04:25 Cloudy with Nearby Thunderstorms 76 24.4 71 21.7 85 85 N 9 15 30.00 1016 10 16 0.00 0.00
4:29 am 04:29 Cloudy with Thunderstorms 76 24.4 71 21.7 85 85 N 9 15 30.00 1016 10 16 0.00 0.00
4:48 am 04:48 Cloudy with Nearby Thunderstorms 75 24 66 19 74 74 NNE 13 20 30.01 1016 10 16 0.00 0.00
4:52 am 04:52 Cloudy with Nearby Thunderstorms 75 23.9 67 19.4 76 76 NE 14 22 30.00 1016 10 16 0.00 0.00
5:06 am 05:06 Cloudy 74 23.3 67 19.4 79 79 ENE 13 20 30.01 1016 10 16 0.00 0.00
5:30 am 05:30 Mostly Cloudy 73 22.8 66 18.9 79 79 NE 13 20 30.01 1016 10 16 0.00 0.00
5:52 am 05:52 Partly Cloudy 72 22.2 67 19.4 84 84 ENE 9 15 30.01 1016 10 16 0.00 0.00
6:52 am 06:52 Partly Cloudy 70 21.1 66 18.9 87 87 SE 7 11 30.00 1016 10 16 0.00 0.00
7:52 am 07:52 Mostly Cloudy 72 22.2 67 19.4 84 84 SE 7 11 30.01 1016 10 16 0.00 0.00
8:52 am 08:52 Cloudy with Light Rain 74 23.3 67 19.4 79 79 NE 5 7 30.02 1017 8 13 0.00 0.00
9:28 am 09:28 Cloudy with Thunderstorms 72 22.2 68 20 87 87 NW 12 19 30.04 1017 5 8 0.02 0.51
9:52 am 09:52 Cloudy with Light Rain 71 21.7 69 20.6 94 94 SSE 7 11 30.01 1016 5 8 0.11 2.79
10:52 am 10:52 Cloudy with Light Rain 72 22.2 69 20.6 91 91 SSW 10 17 30.01 1016 6 10 0.09 2.29
11:23 am 11:23 Cloudy with Nearby Thunderstorms 72 22.2 69 20.6 91 91 SW 8 13 30.00 1016 10 16 0.00 0.00
11:34 am 11:34 Cloudy 72 22.2 69 20.6 91 91 SSW 7 11 29.99 1016 10 16 0.00 0.00
11:52 am 11:52 Cloudy with Light Rain 72 22.2 69 20.6 91 91 SSW 5 7 29.98 1015 6 10 0.00 0.00
12:52 pm 12:52 Cloudy with Light Rain 74 23.3 70 21.1 88 88 VRB 6 9 29.98 1015 7 11 0.03 0.76
1:52 pm 13:52 Cloudy with Light Rain 73 22.8 70 21.1 90 90 SSW 9 15 29.96 1015 7 11 0.01 0.25
2:13 pm 14:13 Cloudy with Light Rain 73 22.8 70 21.1 90 90 SW 7 11 29.96 1015 6 10 0.00 0.00
2:15 pm 14:15 Cloudy with Light Rain 73 22.8 70 21.1 90 90 SW 9 15 29.96 1015 6 10 0.00 0.00
2:52 pm 14:52 Cloudy with Light Rain 73 22.8 69 20.6 87 87 SSW 9 15 29.94 1014 6 10 0.01 0.25
3:52 pm 15:52 Cloudy 73 22.8 68 20 84 84 SSW 6 9 29.92 1013 10 16 0.00 0.00
4:52 pm 16:52 Cloudy 74 23.3 68 20 82 82 SW 5 7 29.92 1013 10 16 0.00 0.00
5:52 pm 17:52 Cloudy 75 23.9 68 20 79 79 SW 3 6 29.90 1013 10 16 0.00 0.00
6:52 pm 18:52 Cloudy 74 23.3 69 20.6 85 85 SSW 6 9 29.90 1012 10 16 0.00 0.00
7:52 pm 19:52 Cloudy 73 22.8 69 20.6 87 87 S 9 15 29.89 1012 10 16 0.00 0.00
8:52 pm 20:52 Cloudy 73 22.8 69 20.6 87 87 Calm 29.92 1013 10 16 0.00 0.00
9:12 pm 21:12 Cloudy 72 22.2 69 20.6 91 91 SW 5 7 29.92 1013 10 16 0.00 0.00
9:52 pm 21:52 Cloudy 72 22.2 68 20 87 87 Calm 29.92 1013 10 16 0.00 0.00
10:52 pm 22:52 Cloudy 70 21.1 68 20 93 93 SSW 3 6 29.90 1013 10 16 0.00 0.00
11:52 pm 23:52 Cloudy 71 21.7 68 20 90 90 Calm 29.90 1013 10 16 0.00 0.00

Powered by AerisWeather